Phnom Penh, Cambodia

4:10 PM +07 on September 24, 2017 (GMT +0700)
Pochentong International

Weather History for VDPP - November, 2012

Change the Weather History Date:

Friday, November 9, 2012

  Actual Average Record
Temperature  
Mean Temperature 85 °F -  
Max Temperature 93 °F 84 °F 93 °F (2012)
Min Temperature 77 °F 74 °F 71 °F (2001)
Cooling Degree Days 20    
Growing Degree Days 35 (Base 50)    
Moisture  
Dew Point 74 °F    
Average Humidity 68    
Maximum Humidity 93    
Minimum Humidity 49    
Precipitation  
Precipitation 0.00 in - - ()
Sea Level Pressure  
Sea Level Pressure 29.82 in    
Wind  
Wind Speed 4 mph ()    
Max Wind Speed 12 mph    
Max Gust Speed -    
Visibility 6.0 miles    
Events      
Averages and records for this station are not official NWS values.
T = Trace of Precipitation, MM = Missing Value Source: Averaged Metar Reports

Daily Weather History Graph

Daily Weather History Graph

Search for Another Location

Airport or City:

Trip Planner

Search our weather history database for the weather conditions in past years. The results will help you decide how hot, cold, wet, or windy it might be!

Date:

Astronomy

Nov. 09, 2012 Rise Set
Actual Time 5:55 AM +07 5:33 PM +07
Civil Twilight 5:33 AM +07 5:55 PM +07
Nautical Twilight 5:07 AM +07 6:21 PM +07
Astronomical Twilight 4:42 AM +07 6:46 PM +07
Moon 1:13 AM +07 (11/9) 1:41 PM +07 (11/9)
Length of Visible Light 12h 22m
Length of Day
11h 38m
Waning Crescent, 28% of the Moon is Illuminated
Nov 9
Waning Crescent
Nov 14
New
Nov 20
First Quarter
Nov 28
Full
Dec 6
Last Quarter

Hourly Weather History & Observations

Time (+07) Temp. Heat Index Dew Point Humidity Pressure Visibility Wind Dir Wind Speed Gust Speed Precip Events Conditions
12:00 AM 82.4 °F 89.5 °F 75.2 °F 79% 29.80 in 6.2 mi South 3.5 mph - N/A   Partly Cloudy
12:30 AM 82.4 °F 89.5 °F 75.2 °F 79% 29.80 in 6.2 mi WSW 3.5 mph - N/A   Partly Cloudy
1:00 AM 82.4 °F 89.5 °F 75.2 °F 79% 29.80 in 6.2 mi SW 3.5 mph - N/A   Partly Cloudy
6:00 AM 80.6 °F 86.2 °F 75.2 °F 84% 29.83 in 5.6 mi South 3.5 mph - N/A   Scattered Clouds
6:30 AM 80.6 °F 86.2 °F 75.2 °F 84% 29.86 in 5.6 mi SW 3.5 mph - N/A   Partly Cloudy
7:00 AM 80 °F - 78 °F 93% 29.84 in 6 mi Calm Calm - -   Scattered Clouds
7:00 AM 82.4 °F 90.9 °F 77.0 °F 84% 29.86 in 5.6 mi SSW 2.3 mph - N/A   Unknown
7:30 AM 82.4 °F 89.5 °F 75.2 °F 79% 29.86 in 5.6 mi South 3.5 mph - N/A   Unknown
8:00 AM 84.2 °F 92.3 °F 75.2 °F 74% 29.86 in - South 8.1 mph - N/A   Clear
8:30 AM 84.2 °F 92.3 °F 75.2 °F 74% 29.86 in - South 5.8 mph - N/A   Clear
9:00 AM 86.0 °F 95.1 °F 75.2 °F 70% 29.89 in 6.2 mi SSE 5.8 mph - N/A   Partly Cloudy
9:30 AM 86.0 °F 95.1 °F 75.2 °F 70% 29.89 in 6.2 mi South 9.2 mph - N/A   Scattered Clouds
10:00 AM 87.8 °F 95.6 °F 73.4 °F 62% 29.89 in 6.2 mi SSE 9.2 mph - N/A   Scattered Clouds
10:30 AM 87.8 °F 97.6 °F 75.2 °F 66% 29.89 in 6.2 mi WSW 11.5 mph - N/A   Scattered Clouds
11:00 AM 87.8 °F 95.6 °F 73.4 °F 62% 29.86 in 6.2 mi WSW 3.5 mph - N/A   Scattered Clouds
11:30 AM 89.6 °F 99.8 °F 75.2 °F 62% 29.83 in 6.2 mi WSW 3.5 mph - N/A   Partly Cloudy
12:00 PM 87.8 °F 95.6 °F 73.4 °F 62% 29.83 in 6.2 mi WNW 4.6 mph - N/A   Partly Cloudy
12:30 PM 87.8 °F 95.6 °F 73.4 °F 62% 29.83 in 6.2 mi WSW 3.5 mph - N/A   Partly Cloudy
1:00 PM 89.6 °F 98.2 °F 73.4 °F 59% 29.80 in 6.2 mi WSW 4.6 mph - N/A   Partly Cloudy
1:30 PM 91.4 °F 100.1 °F 73.4 °F 55% 29.77 in 6.2 mi West 5.8 mph - N/A   Partly Cloudy
2:00 PM 91.4 °F 100.1 °F 73.4 °F 55% 29.77 in 6.2 mi SSW 4.6 mph - N/A   Partly Cloudy
2:30 PM 89.6 °F 96.2 °F 71.6 °F 55% 29.74 in 6.2 mi NNE 6.9 mph - N/A   Partly Cloudy
3:00 PM 91.4 °F 100.1 °F 73.4 °F 55% 29.74 in 6.2 mi Variable 2.3 mph - N/A   Partly Cloudy
3:30 PM 91.4 °F 100.1 °F 73.4 °F 55% 29.74 in 6.2 mi Variable 3.5 mph - N/A   Partly Cloudy
4:00 PM 93.2 °F 100.5 °F 71.6 °F 49% 29.74 in 6.2 mi Calm Calm - N/A   Scattered Clouds
4:30 PM 91.4 °F 98.4 °F 71.6 °F 52% 29.74 in 6.2 mi NNW 4.6 mph - N/A   Scattered Clouds
5:00 PM 91.4 °F 98.4 °F 71.6 °F 52% 29.74 in 6.2 mi North 3.5 mph - N/A   Scattered Clouds
5:30 PM 89.6 °F 96.2 °F 71.6 °F 55% 29.77 in 6.2 mi NNW 3.5 mph - N/A   Scattered Clouds
6:00 PM 87.8 °F 95.6 °F 73.4 °F 62% 29.77 in 6.2 mi NE 3.5 mph - N/A   Scattered Clouds
6:30 PM 87.8 °F 95.6 °F 73.4 °F 62% 29.77 in 5.6 mi NE 3.5 mph - N/A   Scattered Clouds
7:00 PM 87.8 °F 95.6 °F 73.4 °F 62% 29.80 in 5.6 mi NE 3.5 mph - N/A   Partly Cloudy
7:30 PM 86.0 °F 93.4 °F 73.4 °F 66% 29.83 in 5.6 mi SSE 4.6 mph - N/A   Partly Cloudy
8:00 PM 86.0 °F 93.4 °F 73.4 °F 66% 29.83 in 5.6 mi SE 2.3 mph - N/A   Partly Cloudy
8:30 PM 80.6 °F 86.2 °F 75.2 °F 84% 29.83 in 5.6 mi SE 2.3 mph - N/A   Partly Cloudy
9:00 PM 84.2 °F 90.9 °F 73.4 °F 70% 29.83 in 5.6 mi Calm Calm - N/A   Partly Cloudy
9:30 PM 86.0 °F 96.9 °F 77.0 °F 74% 29.86 in 5.6 mi SSW 2.3 mph - N/A   Partly Cloudy
10:30 PM 84.2 °F 94.1 °F 77.0 °F 79% 29.86 in 5.6 mi SW 4.6 mph - N/A   Partly Cloudy
11:00 PM 84.2 °F 94.1 °F 77.0 °F 79% 29.83 in 5.6 mi SSW 4.6 mph - N/A   Partly Cloudy
11:30 PM 84.2 °F 94.1 °F 77.0 °F 79% 29.83 in 5.6 mi SSW 4.6 mph - N/A   Partly Cloudy